Flag for Germany

Past Weather in Rathenow, Brandenburg, Germany — Yesterday and Last 2 Weeks

Now
68 °F

Passing clouds.


Feels Like: 68 °F
Forecast: 73 / 44 °F
Wind: 9 mph from East

Location: Berlin-Tegel
Current Time: Sep 19, 2020 at 2:30:41 pm
Latest Report: Sep 19, 2020 at 1:50 pm
Visibility: N/A
Pressure30.21 "Hg
Humidity: 30%
Dew Point: 36 °F
Location of RathenowLocation

Past Weather in Rathenow — Graph

°F

Rathenow Temperature Yesterday

Maximum temperature yesterday: 70 °F (at 4:50 pm)
Minimum temperature yesterday: 39 °F (at 6:20 am)
Average temperature yesterday: 56 °F

High & Low Weather Summary for the Past Weeks

 TemperatureHumidityPressure
High88 °F (Sep 15, 2:20 pm)100% (Sep 5, 3:50 am)30.45 "Hg (Sep 5, 3:50 am)
Low39 °F (Sep 18, 6:20 am)28% (Sep 18, 3:20 pm)29.95 "Hg (Sep 5, 6:50 am)
Average63 °F69%30.16 "Hg
* Reported Sep 4 1:20 pm — Sep 19 1:20 pm, Rathenow. Weather by CustomWeather, © 2020

Note: Actual official high and low records may vary slightly from our data, if they occured in-between our weather recording intervals... More about our weather records

Rathenow Weather History for the Previous 24 Hours

Scroll right to see more
 ConditionsComfort  
Time TempWeatherWind HumidityBarometerVisibility
1:20 pm
Sat, Sep 19
70 °FPassing clouds.8 mph31%30.21 "HgN/A
12:50 pm68 °FPassing clouds.9 mph35%30.24 "HgN/A
12:20 pm66 °FPassing clouds.7 mph37%30.24 "HgN/A
11:50 am66 °FPassing clouds.9 mph37%30.24 "HgN/A
11:20 am64 °FPassing clouds.9 mph43%30.24 "HgN/A
10:50 am64 °FPassing clouds.9 mph43%30.24 "HgN/A
10:20 am63 °FPassing clouds.8 mph45%30.24 "HgN/A
9:50 am59 °FPassing clouds.6 mph51%30.24 "HgN/A
9:20 am55 °FPassing clouds.5 mph59%30.27 "HgN/A
8:50 am52 °FPassing clouds.5 mph67%30.27 "HgN/A
8:20 am50 °FPassing clouds.3 mph71%30.27 "HgN/A
7:50 am48 °FPassing clouds.3 mph71%30.27 "HgN/A
7:20 am46 °FPassing clouds.3 mph76%30.27 "HgN/A
6:50 am46 °FPassing clouds.3 mph76%30.27 "HgN/A
6:20 am46 °FClear.2 mph76%30.27 "Hg10 mi
5:50 am48 °FPassing clouds.3 mph71%30.27 "HgN/A
5:20 am46 °FPassing clouds.5 mph76%30.27 "HgN/A
4:50 am48 °FPassing clouds.5 mph71%30.27 "HgN/A
4:20 am46 °FPassing clouds.3 mph76%30.27 "HgN/A
3:50 am46 °FClear.2 mph76%30.30 "Hg10 mi
3:20 am46 °FClear.2 mph76%30.30 "Hg10 mi
2:50 am50 °FPassing clouds.3 mph67%30.30 "HgN/A
2:20 am50 °FClear.3 mph67%30.30 "Hg10 mi
1:50 am50 °FClear.2 mph67%30.30 "Hg10 mi
1:20 am50 °FPassing clouds.3 mph62%30.30 "HgN/A
12:50 am50 °FClear.3 mph62%30.33 "Hg10 mi
12:20 am50 °FClear.2 mph62%30.33 "Hg10 mi
11:50 pm
Fri, Sep 18
52 °FClear.2 mph58%30.33 "Hg10 mi
11:20 pm50 °FClear.2 mph62%30.33 "Hg10 mi
10:50 pm52 °FClear.1 mph62%30.33 "Hg10 mi
10:20 pm54 °FPassing clouds.3 mph58%30.33 "HgN/A
9:50 pm55 °FClear.2 mph55%30.33 "Hg10 mi
9:20 pm57 °FClear.3 mph51%30.33 "Hg10 mi
8:50 pm59 °FClear.3 mph48%30.33 "Hg10 mi
8:20 pm61 °FClear.5 mph42%30.33 "Hg10 mi
7:50 pm59 °FClear.2 mph45%30.33 "Hg10 mi
7:20 pm63 °FClear.3 mph39%30.33 "Hg10 mi
6:50 pm66 °FPassing clouds.5 mph32%30.33 "HgN/A
6:20 pm68 °FPassing clouds.3 mph30%30.33 "HgN/A
5:50 pm68 °FMild.5 mph28%30.33 "HgN/A
5:20 pm68 °FSunny.3 mph30%30.33 "Hg10 mi
4:50 pm70 °FSunny.3 mph29%30.36 "Hg10 mi
4:20 pm68 °FPassing clouds.5 mph30%30.36 "HgN/A
3:50 pm68 °FSunny.5 mph30%30.36 "Hg10 mi
3:20 pm68 °FSunny.5 mph28%30.36 "Hg10 mi
2:20 pm66 °FSunny.3 mph32%30.39 "Hg10 mi
Weather by CustomWeather, © 2020

See weather overview